White Mountain, AK

11:46 PM AKDT on May 24, 2018 (GMT -0800)
White Mountain

Weather History for PAWM - February, 2013

Change the Weather History Date:

Friday, February 15, 2013

  Actual Average (PAOM) Record (PAOM)
Temperature  
Mean Temperature -6 °F -  
Max Temperature 0 °F 13 °F 36 °F (1968)
Min Temperature -11 °F -2 °F -37 °F (1957)
Degree Days  
Heating Degree Days 70    
Moisture  
Dew Point -10 °F    
Average Humidity 85    
Maximum Humidity 92    
Minimum Humidity 77    
Precipitation  
Precipitation 0.00 in - - ()
Sea Level Pressure  
Sea Level Pressure 29.82 in    
Wind  
Wind Speed 6 mph (ESE)    
Max Wind Speed 10 mph    
Max Gust Speed -    
Visibility 5 miles    
Events Snow    
Averages and records for this station are not official NWS values.
T = Trace of Precipitation, MM = Missing Value Source: NWS Daily Summary

Daily Weather History Graph

Daily Weather History Graph

Search for Another Location

Airport or City:

Astronomy

Feb. 15, 2013 Rise Set
Actual Time 9:49 AM AKST 6:26 PM AKST
Civil Twilight 8:57 AM AKST 7:19 PM AKST
Nautical Twilight 8:00 AM AKST 8:16 PM AKST
Astronomical Twilight 7:04 AM AKST 9:12 PM AKST
Moon 10:06 AM AKST (2/15) 2:00 AM AKST (2/15)
Length of Visible Light 10h 21m
Length of Day
8h 36m
Waxing Crescent, 31% of the Moon is Illuminated
Feb 15
Waxing Crescent
Feb 17
First Quarter
Feb 25
Full
Mar 4
Last Quarter
Mar 11
New

Hourly Weather History & Observations

Time (AKST) Temp. Windchill Dew Point Humidity Pressure Visibility Wind Dir Wind Speed Gust Speed Precip Events Conditions
12:46 AM -9.4 °F -24.3 °F -13.0 °F 84% 29.62 in 8.0 mi SSE 6.9 mph - N/A   Overcast
12:58 AM -9.9 °F -21.5 °F -13.0 °F 86% 29.65 in 7.0 mi SSE 4.6 mph - 0.00 in Snow Light Snow
1:58 AM -9.0 °F -22.3 °F -11.9 °F 87% 29.68 in 6.0 mi SSW 5.8 mph - 0.00 in Snow Light Snow
3:11 AM -9.4 °F -20.9 °F -11.2 °F 92% 29.66 in 4.0 mi South 4.6 mph - 0.00 in Snow Light Snow
3:17 AM -9.4 °F -20.9 °F -11.2 °F 92% 29.66 in 5.0 mi South 4.6 mph - 0.00 in Snow Light Snow
3:58 AM -9.0 °F -22.3 °F -11.9 °F 87% 29.71 in 5.0 mi South 5.8 mph - 0.00 in Snow Light Snow
4:24 AM -9.4 °F -24.3 °F -11.2 °F 92% 29.68 in 7.0 mi South 6.9 mph - 0.00 in Snow Light Snow
4:58 AM -7.1 °F -19.9 °F -9.9 °F 87% 29.73 in 2.5 mi South 5.8 mph - 0.00 in Snow Light Snow
5:04 AM -7.6 °F -20.6 °F -9.4 °F 92% 29.69 in 3.0 mi South 5.8 mph - 0.00 in Snow Light Snow
5:58 AM -7.1 °F -21.4 °F -9.9 °F 87% 29.74 in 5.0 mi South 6.9 mph - 0.00 in Snow Light Snow
6:58 AM -8.0 °F -22.5 °F -11.0 °F 86% 29.75 in 5.0 mi SSW 6.9 mph - 0.00 in Snow Light Snow
7:58 AM -7.1 °F -21.4 °F -9.9 °F 87% 29.77 in 4.0 mi South 6.9 mph - 0.00 in Snow Light Snow
8:14 AM -7.6 °F -20.6 °F -9.4 °F 92% 29.73 in 4.0 mi SSE 5.8 mph - 0.00 in Snow Light Snow
8:46 AM -7.6 °F -18.8 °F -11.2 °F 84% 29.74 in 5.0 mi SE 4.6 mph - 0.00 in Snow Light Snow
8:51 AM -7.6 °F -18.8 °F -11.2 °F 84% 29.74 in 6.0 mi SSE 4.6 mph - 0.00 in Snow Light Snow
8:58 AM -8.0 °F -19.2 °F -11.0 °F 86% 29.78 in 7.0 mi SE 4.6 mph - 0.00 in Snow Light Snow
9:04 AM -7.6 °F -20.6 °F -11.2 °F 84% 29.75 in 6.0 mi SE 5.8 mph - 0.00 in Snow Light Snow
9:08 AM -7.6 °F -20.6 °F -11.2 °F 84% 29.75 in 5.0 mi SE 5.8 mph - 0.00 in Snow Light Snow
9:58 AM -8.0 °F -19.2 °F -11.9 °F 83% 29.80 in 5.0 mi East 4.6 mph - 0.00 in Snow Light Snow
10:58 AM -8.0 °F -22.5 °F -11.9 °F 83% 29.81 in 5.0 mi East 6.9 mph - 0.00 in Snow Light Snow
11:58 AM -5.1 °F -13.6 °F -8.0 °F 87% 29.83 in 5.0 mi ENE 3.5 mph - 0.00 in   Overcast
12:49 PM -2.2 °F -12.5 °F -7.6 °F 78% 29.81 in 2.5 mi East 4.6 mph - 0.00 in Snow Light Snow
12:58 PM -2.9 °F -13.3 °F -6.0 °F 87% 29.85 in 2.5 mi East 4.6 mph - 0.00 in Snow Light Snow
1:19 PM -2.2 °F -12.5 °F -5.8 °F 85% 29.81 in 3.0 mi East 4.6 mph - 0.00 in Snow Light Snow
1:58 PM -2.0 °F -12.2 °F -5.1 °F 87% 29.87 in 3.0 mi East 4.6 mph - 0.00 in Snow Light Snow
2:06 PM -2.2 °F -10.4 °F -5.8 °F 85% 29.83 in 2.5 mi East 3.5 mph - 0.00 in Snow Light Snow
2:16 PM -0.4 °F -8.3 °F -5.8 °F 78% 29.83 in 3.0 mi East 3.5 mph - 0.00 in Snow Light Snow
2:58 PM -0.9 °F -11.0 °F -5.1 °F 83% 29.88 in 3.0 mi East 4.6 mph - 0.00 in Snow Light Snow
3:49 PM -2.2 °F -12.5 °F -5.8 °F 85% 29.86 in 4.0 mi SSE 4.6 mph - 0.00 in Snow Light Snow
3:58 PM -2.0 °F -10.1 °F -6.0 °F 83% 29.90 in 5.0 mi SSE 3.5 mph - 0.00 in Snow Light Snow
4:58 PM -0.9 °F -11.0 °F -6.0 °F 79% 29.92 in 8.0 mi SE 4.6 mph - 0.00 in   Mostly Cloudy
5:58 PM -5.1 °F -15.8 °F -9.0 °F 83% 29.93 in 5.0 mi East 4.6 mph - N/A   Mostly Cloudy
6:58 PM -6.0 °F -18.6 °F -9.9 °F 83% 29.95 in 5.0 mi ENE 5.8 mph - N/A   Overcast
7:58 PM -8.0 °F -22.5 °F -11.9 °F 83% 29.96 in 5.0 mi North 6.9 mph - 0.00 in Snow Light Snow
8:03 PM -7.6 °F -23.4 °F -11.2 °F 84% 29.92 in 4.0 mi North 8.1 mph - 0.00 in Snow Light Snow
8:26 PM -9.4 °F -25.6 °F -13.0 °F 84% 29.93 in 8.0 mi North 8.1 mph - 0.00 in Snow Light Snow
8:58 PM -9.9 °F -26.3 °F -14.1 °F 82% 29.98 in 9.0 mi North 8.1 mph - 0.00 in Snow Light Snow
9:58 PM -9.9 °F -26.3 °F -14.1 °F 82% 30.00 in 7.0 mi North 8.1 mph - 0.00 in Snow Light Snow
10:18 PM -9.4 °F -25.6 °F -14.8 °F 77% 29.96 in 5.0 mi North 8.1 mph - 0.00 in Snow Light Snow
10:30 PM -9.4 °F -25.6 °F -14.8 °F 77% 29.97 in 7.0 mi North 8.1 mph - 0.00 in Snow Light Snow
10:58 PM -11.9 °F -31.0 °F -16.1 °F 82% 30.02 in 9.0 mi North 10.4 mph - 0.00 in   Clear
11:58 PM -11.9 °F -31.0 °F -16.1 °F 82% 30.04 in 10.0 mi North 10.4 mph - N/A   Clear